STARLINK-35231, 65849

Orbit data source: Space-Track

STARLINK-35231, 65849 is a payload satellite owned by SpaceX/Seattle (US) in LEO that was launched on Mon, 29 Sep 2025 UTC via an FALCON 9 launch vehicle from the Air Force Western Test Range (AFWTR). Payload-class satellites include a variety of spacecraft equipped with specific instruments for various scientific and technological missions. These include communications satellites like Starlink; space stations such as the ISS; scientific satellites like the Hubble; Earth observation satellites from companies like Planet Labs, Umbra, and HawkEye 360; GPS; miniature CubeSats for education and research; and military/defense satellites.

Loading next visibility...
Identifier
65849, 2025-221AC
Orbit
LEO
Country
Flag of USUS
Related business
Manufacturer
SpaceX/Seattle
Mission
Operational Commercial Communications
Bus & Motor
STARLINK V2MO, Unknown motor
Mass
575 kg wet, ~530 kg dry
Launch date (UTC)
2025-09-29 (2 months ago)
Launch vehicle
FALCON 9
Launch site
Air Force Western Test Range (AFWTR)
Object type
Payload
Rocket body
Debris
Shape & HBR
Box + 2 Pan, 17.7 m
Radar Cross Section
36.964 m²

Expand to show TLE details & history
Last TLE update: 15 hours ago

TLE from 15 hours ago
0 STARLINK-35231
1 65849U 25221AC  25340.53244500  .00044957  00000-0  15192-2 0  9990
2 65849  53.1581 161.5398 0001116  97.1492 262.9636 15.30235338 11819
Epoch: 2025-12-06T12:46Z
TLE epoch observation values (Epoch: 2025-12-06T12:46:43.247Z)
Latitude
0.00003°
Longitude
-105.69921°
Altitude
476.103 km
Speed
7.629 km/s
True Right ascension
10h 46m 09s
True Declination
0° 00' 00"
Sunlit
Object was in daylight at epoch
Visualization orbit readout
Latitude
Unknown
Longitude
Unknown
Altitude
Unknown
Speed
Unknown
Apparent Right ascension
Unknown
Apparent Declination
Unknown
Sunlit
N/A
Visualization observer readout
Local Sidereal Time
02:14:41
Azimuth
Unknown
Elevation
Unknown
Doppler factor
Unknown
Orbital elements
Apogee altitude
476.131 km
Perigee altitude
474.601 km
Semi-major axis
6,853.503 km
Eccentricity
0.00011
Inclination
53.1581°
RAAN
161.5398°
Arg. of periapsis
97.1492°
True anomaly
262.95091°
Mean anomaly
262.9636°
Eccentric anomaly
262.95725°
Mean motion
3.82538 °/min
Orbital period
94.11 mins
BSTAR
0.0015192
Loading maneuver chart data...
Computing Atmospheric mass density...
Loading historical data...
Loading historical data...
Loading historical data...
Loading historical data...
Loading historical data...
Loading historical data...
Loading historical data...

Documentation

Showing up to 5 results
|